• In Netherlands
  • List of Countries
  • For 7 days
  • Water Temperature
  • Satellite Maps
  • Weather Map
  • Weather Widgets
  • user-avatar
    Login

    Hourly Weather Ali Bayramli

    Today, 28 April, Friday

    Time Temperature Precipitation Wind Pressure Humidity
    00:00 +11°C° 0 mm 1 mps 770 mmHg 63%
    01:00 +11°C° 0 mm 1 mps 770 mmHg 63%
    02:00 +12°C° 0 mm 1 mps 770 mmHg 63%
    03:00 +12°C° 0 mm 1 mps 769 mmHg 63%
    04:00 +12°C° 0 mm 1 mps 769 mmHg 64%
    05:00 +12°C° 0 mm 1 mps 769 mmHg 64%
    06:00 +13°C° 0 mm 1 mps 769 mmHg 64%
    07:00 +14°C° 0 mm 1 mps 769 mmHg 61%
    08:00 +15°C° 0 mm 2 mps 769 mmHg 57%
    09:00 +16°C° 0 mm 2 mps 768 mmHg 53%
    10:00 +17°C° 0 mm 2 mps 768 mmHg 49%
    11:00 +19°C° 0 mm 2 mps 767 mmHg 45%
    12:00 +20°C° 0 mm 2 mps 767 mmHg 41%
    13:00 +20°C° 0 mm 3 mps 766 mmHg 40%
    14:00 +21°C° 0 mm 3 mps 766 mmHg 39%
    15:00 +21°C° 0 mm 4 mps 765 mmHg 38%
    16:00 +20°C° 0 mm 4 mps 765 mmHg 41%
    17:00 +19°C° 0 mm 4 mps 765 mmHg 43%
    18:00 +18°C° 0 mm 3 mps 765 mmHg 46%
    19:00 +17°C° 0 mm 3 mps 765 mmHg 48%
    20:00 +15°C° 0 mm 2 mps 765 mmHg 51%
    21:00 +14°C° 0 mm 1 mps 765 mmHg 53%
    22:00 +14°C° 0 mm 1 mps 765 mmHg 54%
    23:00 +14°C° 0 mm 1 mps 764 mmHg 55%

    Tomorrow, 29 April, Saturday

    Time Temperature Precipitation Wind Pressure Humidity
    00:00 +13°C° 0 mm 1 mps 764 mmHg 56%
    01:00 +13°C° 0 mm 1 mps 764 mmHg 57%
    02:00 +13°C° 0 mm 1 mps 763 mmHg 58%
    03:00 +13°C° 0 mm 1 mps 763 mmHg 58%
    04:00 +13°C° 0 mm 1 mps 763 mmHg 57%
    05:00 +14°C° 0 mm 1 mps 763 mmHg 56%
    06:00 +15°C° 0 mm 1 mps 763 mmHg 54%
    07:00 +18°C° 0 mm 1 mps 763 mmHg 49%
    08:00 +20°C° 0 mm 1 mps 763 mmHg 43%
    09:00 +21°C° 0 mm 1 mps 763 mmHg 38%
    10:00 +21°C° 0 mm 2 mps 762 mmHg 36%
    11:00 +24°C° 0 mm 2 mps 762 mmHg 34%
    12:00 +25°C° 0 mm 2 mps 762 mmHg 33%
    13:00 +25°C° 0 mm 3 mps 761 mmHg 33%
    14:00 +25°C° 0 mm 4 mps 761 mmHg 34%
    15:00 +25°C° 0 mm 5 mps 761 mmHg 35%
    16:00 +23°C° 0 mm 4 mps 760 mmHg 39%
    17:00 +21°C° 0 mm 4 mps 760 mmHg 43%
    18:00 +20°C° 0 mm 4 mps 760 mmHg 48%
    19:00 +19°C° 0 mm 3 mps 761 mmHg 50%
    20:00 +17°C° 0 mm 2 mps 761 mmHg 53%
    21:00 +16°C° 0 mm 2 mps 761 mmHg 55%
    22:00 +16°C° 0 mm 2 mps 761 mmHg 56%
    23:00 +15°C° 0 mm 2 mps 761 mmHg 57%

    Day after tomorrow, 30 April, Sunday

    Time Temperature Precipitation Wind Pressure Humidity
    00:00 +15°C° 0 mm 1 mps 761 mmHg 57%
    01:00 +15°C° 0 mm 1 mps 760 mmHg 58%
    02:00 +14°C° 0 mm 1 mps 760 mmHg 59%
    03:00 +14°C° 0 mm 1 mps 760 mmHg 61%
    04:00 +15°C° 0 mm 1 mps 760 mmHg 59%
    05:00 +16°C° 0 mm 1 mps 760 mmHg 57%
    06:00 +16°C° 0 mm 1 mps 760 mmHg 55%
    07:00 +19°C° 0 mm 1 mps 760 mmHg 49%
    08:00 +21°C° 0 mm 1 mps 760 mmHg 43%
    09:00 +23°C° 0 mm 1 mps 760 mmHg 38%
    10:00 +24°C° 0 mm 1 mps 760 mmHg 35%
    11:00 +26°C° 0 mm 1 mps 760 mmHg 33%
    12:00 +27°C° 0 mm 1 mps 759 mmHg 31%
    13:00 +27°C° 0 mm 2 mps 759 mmHg 30%
    14:00 +27°C° 0 mm 3 mps 758 mmHg 29%
    15:00 +28°C° 0 mm 4 mps 758 mmHg 29%
    16:00 +26°C° 0 mm 4 mps 758 mmHg 32%
    17:00 +23°C° 0 mm 4 mps 758 mmHg 34%
    18:00 +22°C° 0 mm 4 mps 758 mmHg 37%
    19:00 +20°C° 0 mm 3 mps 758 mmHg 39%
    20:00 +19°C° 0 mm 2 mps 759 mmHg 42%
    21:00 +18°C° 0 mm 1 mps 759 mmHg 44%
    22:00 +18°C° 0 mm 1 mps 759 mmHg 45%
    23:00 +18°C° 0 mm 1 mps 759 mmHg 46%

    1 May, Monday

    Time Temperature Precipitation Wind Pressure Humidity
    00:00 +16°C° 0 mm 1 mps 759 mmHg 46%
    01:00 +16°C° 0 mm 1 mps 759 mmHg 47%
    02:00 +16°C° 0 mm 1 mps 759 mmHg 47%
    03:00 +16°C° 0 mm 1 mps 758 mmHg 47%
    04:00 +18°C° 0 mm 1 mps 759 mmHg 47%
    05:00 +18°C° 0 mm 1 mps 759 mmHg 47%
    06:00 +17°C° 0 mm 0 mps 759 mmHg 47%
    07:00 +21°C° 0 mm 1 mps 759 mmHg 41%
    08:00 +23°C° 0 mm 1 mps 760 mmHg 36%
    09:00 +25°C° 0 mm 1 mps 760 mmHg 31%
    10:00 +26°C° 0 mm 1 mps 760 mmHg 30%
    11:00 +27°C° 0 mm 2 mps 759 mmHg 29%
    12:00 +28°C° 0 mm 2 mps 759 mmHg 28%
    13:00 +29°C° 0 mm 3 mps 759 mmHg 28%
    14:00 +29°C° 0 mm 4 mps 759 mmHg 28%
    15:00 +29°C° 0 mm 5 mps 758 mmHg 28%
    16:00 +27°C° 0 mm 4 mps 758 mmHg 31%
    17:00 +25°C° 0 mm 4 mps 759 mmHg 34%
    18:00 +22°C° 0 mm 4 mps 759 mmHg 37%
    19:00 +21°C° 0 mm 3 mps 759 mmHg 38%
    20:00 +20°C° 0 mm 3 mps 760 mmHg 39%
    21:00 +18°C° 0 mm 2 mps 760 mmHg 40%
    22:00 +18°C° 0 mm 2 mps 760 mmHg 41%
    23:00 +17°C° 0 mm 2 mps 759 mmHg 41%

    2 May, Tuesday

    Time Temperature Precipitation Wind Pressure Humidity
    00:00 +17°C° 0 mm 2 mps 759 mmHg 41%
    01:00 +17°C° 0 mm 2 mps 759 mmHg 41%
    02:00 +17°C° 0 mm 2 mps 759 mmHg 41%
    03:00 +16°C° 0 mm 1 mps 759 mmHg 40%
    04:00 +18°C° 0 mm 1 mps 759 mmHg 41%
    05:00 +19°C° 0 mm 1 mps 759 mmHg 41%
    06:00 +19°C° 0 mm 1 mps 759 mmHg 42%
    07:00 +21°C° 0 mm 1 mps 759 mmHg 37%
    08:00 +23°C° 0 mm 1 mps 759 mmHg 32%
    09:00 +25°C° 0 mm 2 mps 759 mmHg 27%
    10:00 +26°C° 0 mm 2 mps 759 mmHg 26%
    11:00 +27°C° 0 mm 3 mps 758 mmHg 25%
    12:00 +29°C° 0 mm 4 mps 758 mmHg 23%
    13:00 +28°C° 0 mm 4 mps 757 mmHg 24%
    14:00 +28°C° 0 mm 5 mps 757 mmHg 26%
    15:00 +27°C° 0 mm 6 mps 756 mmHg 27%
    16:00 +26°C° 0 mm 4 mps 757 mmHg 32%
    17:00 +24°C° 0 mm 3 mps 757 mmHg 36%
    18:00 +23°C° 0 mm 2 mps 757 mmHg 41%
    19:00 +21°C° 0.1 mm 2 mps 757 mmHg 42%
    20:00 +20°C° 0.1 mm 2 mps 757 mmHg 44%
    21:00 +21°C° 0.1 mm 1 mps 757 mmHg 45%
    22:00 +20°C° 0 mm 1 mps 756 mmHg 47%
    23:00 +19°C° 0 mm 1 mps 756 mmHg 50%

    3 May, Wednesday

    Time Temperature Precipitation Wind Pressure Humidity
    00:00 +19°C° 0 mm 1 mps 756 mmHg 53%
    01:00 +19°C° 0.1 mm 1 mps 755 mmHg 54%
    02:00 +19°C° 0.1 mm 1 mps 755 mmHg 55%
    03:00 +18°C° 0.1 mm 1 mps 755 mmHg 56%
    04:00 +19°C° 0 mm 1 mps 755 mmHg 56%
    05:00 +19°C° 0 mm 1 mps 755 mmHg 56%
    06:00 +19°C° 0 mm 2 mps 755 mmHg 56%
    07:00 +21°C° 0 mm 2 mps 755 mmHg 50%
    08:00 +24°C° 0 mm 2 mps 755 mmHg 44%
    09:00 +26°C° 0 mm 3 mps 755 mmHg 37%
    10:00 +27°C° 0 mm 3 mps 755 mmHg 34%
    11:00 +28°C° 0 mm 3 mps 754 mmHg 31%
    12:00 +30°C° 0 mm 3 mps 754 mmHg 28%
    13:00 +30°C° 0 mm 3 mps 754 mmHg 28%
    14:00 +30°C° 0 mm 3 mps 753 mmHg 29%
    15:00 +31°C° 0 mm 3 mps 753 mmHg 29%
    16:00 +29°C° 0 mm 3 mps 753 mmHg 34%
    17:00 +27°C° 0 mm 3 mps 753 mmHg 40%
    18:00 +26°C° 0 mm 4 mps 753 mmHg 46%
    19:00 +24°C° 0 mm 3 mps 754 mmHg 50%
    20:00 +22°C° 0 mm 3 mps 754 mmHg 54%
    21:00 +20°C° 0 mm 2 mps 754 mmHg 58%
    22:00 +20°C° 0 mm 2 mps 754 mmHg 58%
    23:00 +19°C° 0 mm 2 mps 754 mmHg 58%
    Show more